Regional Weather Roundup
Issued by NWS

Home | Current Version | Previous Version | Graphics & Text | Print | Product List | Glossary On
Versions: 1 2 3 4 5 6 7 8 9 10 11 12 13 14 15 16 17 18 19 20 21 22 23 24 25 26 27 28 29 30 31 32 33 34 35 36 37 38 39 40 41 42 43 44 45 46 47 48 49 50
000
ASUS43 KLSX 202359
RWRMO

WEATHER SUMMARY FOR MISSOURI
NATIONAL WEATHER SERVICE SPRINGFIELD MO
700 PM CDT THU JUL 20 2017

NOTE: "FAIR" INDICATES FEW OR NO CLOUDS BELOW 12,000 FEET WITH NO
       SIGNIFICANT WEATHER AND/OR OBSTRUCTIONS TO VISIBILITY.
       CURRENT SKY AND/OR WEATHER CONDITIONS ARE NOT AVAILABLE FOR
       CHILLICOTHE AND FARMINGTON.

MOZ001>031-035>038-043-044-053-054-210100-
...NORTHERN AND WESTERN MISSOURI...

CITY           SKY/WX    TMP DP  RH WIND       PRES   REMARKS
KANSAS CTY INT SUNNY     94  75  54 S9        29.95F HX 105
6HR MIN TEMP:  93; 6HR MAX TEMP:  97;

KANSAS C DTWN  SUNNY     95  74  50 S12       29.93F HX 105
6HR MIN TEMP:  95; 6HR MAX TEMP:  98;

LEE`S SUMMIT   SUNNY     95  75  52 S9        29.97S HX 107
6HR MIN TEMP:  94; 6HR MAX TEMP:  97;

ST JOSEPH      SUNNY     92  81  70 S6        29.93S HX 112
6HR MIN TEMP:  91; 6HR MAX TEMP:  95;

CHILLICOTHE      N/A     93  82  70 S5        29.95S HX 116
6HR MIN TEMP:  92; 6HR MAX TEMP:  96;

KIRKSVILLE     SUNNY     92  78  63 SW7       29.96F HX 107
6HR MIN TEMP:  92; 6HR MAX TEMP:  95;


$$
MOZ066>068-077>081-088>096-101>105-210100-
...SOUTHWEST MISSOURI...

CITY           SKY/WX    TMP DP  RH WIND       PRES   REMARKS
SPRINGFIELD    SUNNY     93  71  48 W7        30.03S HX 100
6HR MIN TEMP:  91; 6HR MAX TEMP:  96;

JOPLIN         SUNNY     94  72  48 SW9       30.01F HX 102
6HR MIN TEMP:  94; 6HR MAX TEMP:  98;

BRANSON        MOSUNNY   91  70  49 CALM      30.06S HX  97

$$
MOZ032>034-039>042-045>050-055>058-069>072-210100-
...CENTRAL MISSOURI...

CITY           SKY/WX    TMP DP  RH WIND       PRES   REMARKS
COLUMBIA       SUNNY     95  73  48 SW6       29.98F HX 104
6HR MIN TEMP:  94; 6HR MAX TEMP:  99;

JEFFERSON CITY SUNNY     97  71  42 W6        29.96S HX 104
6HR MIN TEMP:  94; 6HR MAX TEMP:  98;

ROLLA          SUNNY     91  73  55 S6        30.00F HX  99
6HR MIN TEMP:  91; 6HR MAX TEMP:  95;

WARRENSBURG    SUNNY     93  72  49 S8        29.96F HX 100
OSAGE BEACH    MOSUNNY   97  71  42 VRB3      29.99F HX 104

$$
MOZ051-052-059>065-210100-
...EAST CENTRAL MISSOURI...

CITY           SKY/WX    TMP DP  RH WIND       PRES   REMARKS
ST LOUIS INTL  MOSUNNY   99  67  35 W13       29.96F HX 103
6HR MIN TEMP:  98; 6HR MAX TEMP: 102;

SPIRIT OF STL  MOSUNNY   96  74  48 W6        29.95F HX 107
6HR MIN TEMP:  95; 6HR MAX TEMP:  99;

ST CHARLES     SUNNY     96  73  47 MISG      29.94S HX 105
6HR MIN TEMP:  96; 6HR MAX TEMP: 100;


$$
MOZ072>076-082>087-097>100-106>115-210100-
...SOUTH CENTRAL AND SOUTHEAST MISSOURI...

CITY           SKY/WX    TMP DP  RH WIND       PRES   REMARKS
CAPE GIRARDEAU MOSUNNY   87  76  69 SW5       29.99F HX  97
6HR MIN TEMP:  87; 6HR MAX TEMP:  94;

FARMINGTON     MOSUNNY   91  76  61 S10       30.02S HX 103
6HR MIN TEMP:  91; 6HR MAX TEMP:  96;

POPLAR BLUFF   SUNNY     91  78  65 S7        29.99F HX 106
6HR MIN TEMP:  91; 6HR MAX TEMP:  93;

WEST PLAINS    SUNNY     91  70  49 SW8       30.05F HX  96
6HR MIN TEMP:  91; 6HR MAX TEMP:  96;


$$



USA.gov is the U.S. government's official web portal to all federal, state and local government web resources and services.